Location: Austin
(30.3000°N, 97.7500°W)
Time: 06:17:41
(UTC-06:00)

Meteor 1-11 - Pass Details

Date: 05 February 2026
Orbit: 829 x 895 km, 81.2° (Epoch: 15 February)

Event Time Altitude Azimuth Distance (km) Brightness Sun altitude
Rises 06:32:17 0° 352° (N) 3,491 7.2 -10.6°
Reaches altitude 10° 06:34:44 10° 353° (N) 2,556 6.5 -10.1°
Maximum altitude 06:40:34 89° 77° (ENE) 897 4.4 -8.8°
Drops below altitude 10° 06:46:25 10° 173° (S) 2,555 7.0 -7.6°
Sets 06:48:52 0° 174° (S) 3,490 7.7 -7.1°
